Regional Weather Roundup
Issued by NWS

Home | Current Version | Previous Version | Text Only | Print | Product List | Glossary Off
Versions: 1 2 3 4 5 6 7 8 9 10 11 12 13 14 15 16 17 18 19 20 21 22 23 24 25 26 27 28 29 30 31 32 33 34 35 36 37 38 39 40 41 42 43 44 45 46 47 48 49 50

000
ASUS43 KLMK 061610
RWRKY
KENTUCKY REGIONAL WEATHER ROUNDUP
NATIONAL WEATHER SERVICE LOUISVILLE KY
1200 PM EDT MON JUL 06 2015

NOTE "FAIR" INDICATES FEW OR NO CLOUDS BELOW 12,000 FEET
WITH NO SIGNIFICANT WEATHER AND/OR OBSTRUCTIONS TO VISIBILITY.

KYZ001>023-026-027-061>063-070>075-061700-
WESTERN AND SOUTH CENTRAL KENTUCKY

CITY           SKY/WX    TMP DP  RH WIND       PRES   REMARKS
PADUCAH        FAIR      81  72  74 SW8       30.08S
HENDERSON      FAIR      82  72  69 S9G16     30.06S
OWENSBORO      FAIR      84  74  72 SW8       30.09R HX  91
HOPKINSVILLE   CLOUDY    81  71  71 SW12      30.10S
BOWLING GREEN  PTSUNNY   79  71  76 SW7       30.13R
GLASGOW        CLOUDY    76  71  83 W6        30.15R
$$

KYZ024-025-028>034-038-045-046-053-061700-
NORTH CENTRAL KENTUCKY

CITY           SKY/WX    TMP DP  RH WIND       PRES   REMARKS
LOUISVILLE/SDF FAIR      82  70  66 S9        30.09S
LOUISVILLE/LOU FAIR      81  70  69 S8        30.10S
FORT KNOX      FAIR      81  69  67 S6        30.10R
$$

KYZ035>037-039>044-047>052-055>060-089>105-061700-
NORTHEAST KENTUCKY

CITY           SKY/WX    TMP DP  RH WIND       PRES   REMARKS
LEXINGTON      FAIR      80  65  59 VRB6      30.13S
COVINGTON      FAIR      78  64  61 CALM      30.10F
FRANKFORT      FAIR      79  65  62 S5        30.10F
$$

KYZ054-064>069-076>088-106>120-061700-
SOUTHEAST KENTUCKY

CITY           SKY/WX    TMP DP  RH WIND       PRES   REMARKS
JACKSON        PTSUNNY   74  66  76 VRB3      30.16S
LONDON         PTSUNNY   75  65  70 SW7       30.17S
SOMERSET       CLOUDY    73  70  88 CALM      30.17R
MIDDLESBORO    FAIR      79  68  69 W6        30.17S
MONTICELLO     FAIR      81  71  71 SW7       30.18R
$$



USA.gov is the U.S. government's official web portal to all federal, state and local government web resources and services.